This demonstration page uses our WeatherBlox Daily Observations layout. Learn more.

Left ArrowRight Arrow

Hourly Observations for January 16, 2021

Temp ( °F °C ) Dew Point ( °F °C ) Humidity (%) Winds ( mph kmh ) Pressure ( in mb ) Visibility ( mi km ) Precip ( " mm )
12:53 am 00:53 Cloudy 38 3.3 25 -3.9 60 60 SW 13 20 30.16 1022 10 16 0.00 0.00
1:53 am 01:53 Cloudy 36 2.2 25 -3.9 64 64 WSW 6 9 30.17 1022 10 16 0.00 0.00
2:53 am 02:53 Cloudy 35 1.7 30 -1.1 82 82 WSW 7 11 30.17 1022 10 16 0.00 0.00
3:53 am 03:53 Cloudy 34 1.1 30 -1.1 85 85 S 5 7 30.17 1022 10 16 0.00 0.00
4:53 am 04:53 Partly Cloudy 31 -0.6 28 -2.2 89 89 SW 15 24 30.20 1023 10 16 0.00 0.00
5:53 am 05:53 Clear 27 -2.8 23 -5 85 85 SW 12 19 30.20 1023 10 16 0.00 0.00
6:53 am 06:53 Clear 27 -2.8 19 -7.2 72 72 SW 13 20 30.22 1023 10 16 0.00 0.00
7:53 am 07:53 Clear 26 -3.3 18 -7.8 71 71 WSW 12 19 30.23 1024 10 16 0.00 0.00
8:53 am 08:53 Cloudy 26 -3.3 18 -7.8 71 71 SW 13 20 30.24 1024 10 16 0.00 0.00
9:53 am 09:53 Partly Cloudy 30 -1.1 21 -6.1 69 69 WSW 12 19 30.25 1025 10 16 0.00 0.00
10:53 am 10:53 Cloudy 33 0.6 21 -6.1 61 61 WSW 15 24 30.25 1025 10 16 0.00 0.00
11:53 am 11:53 Cloudy 37 2.8 21 -6.1 52 52 WSW 12 19 30.25 1024 10 16 0.00 0.00
12:53 pm 12:53 Cloudy 41 5 21 -6.1 45 45 W 10 17 30.22 1023 10 16 0.00 0.00
1:53 pm 13:53 Sunny 43 6.1 19 -7.2 38 38 WNW 10 17 30.21 1023 10 16 0.00 0.00
2:53 pm 14:53 Sunny 43 6.1 15 -9.4 32 32 NNW 13 20 30.22 1023 10 16 0.00 0.00
3:53 pm 15:53 Sunny 41 5 16 -8.9 36 36 NW 7 11 30.22 1023 10 16 0.00 0.00
4:53 pm 16:53 Sunny 35 1.7 15 -9.4 44 44 W 3 6 30.23 1024 10 16 0.00 0.00
5:53 pm 17:53 Clear 33 0.6 15 -9.4 47 47 Calm 30.22 1024 10 16 0.00 0.00
6:53 pm 18:53 Clear 24 -4.4 14 -10 65 65 WSW 7 11 30.24 1024 10 16 0.00 0.00
7:53 pm 19:53 Clear 20 -6.7 13 -10.6 74 74 W 5 7 30.24 1024 10 16 0.00 0.00
8:53 pm 20:53 Clear 20 -6.7 13 -10.6 74 74 WNW 6 9 30.24 1024 10 16 0.00 0.00
9:53 pm 21:53 Clear 19 -7.2 12 -11.1 74 74 W 3 6 30.23 1024 10 16 0.00 0.00
10:53 pm 22:53 Clear 20 -6.7 14 -10 78 78 W 6 9 30.20 1023 10 16 0.00 0.00
11:53 pm 23:53 Clear 19 -7.2 13 -10.6 77 77 W 7 11 30.20 1023 10 16 0.00 0.00

Powered by AerisWeather